Location: Le Faou�t
(48.0331°N, 3.4910°W)
Time: 01:02:58
(UTC+00:00)

Daily predictions for brighter satellites

Satellite Brightness Start Highest point End
(mag) Time Altitude Azimuth Time Altitude Azimuth Time Altitude Azimuth
ATLAS 3B R/B 4.3 03:24:25 28° ENE 03:24:25 28° ENE 03:28:13 10° E
Cosmos 2263 Rocket 4.5 03:42:30 18° ESE 03:42:30 18° ESE 03:44:10 10° ESE
CENTAUR R/B 3.6 03:40:39 55° ENE 03:40:39 55° ENE 03:47:53 10° ESE
USA 215 4.3 03:45:14 10° ENE 03:50:01 39° NE 03:50:01 39° NE
Lacrosse 5 rocket 4.2 04:17:12 17° NE 04:17:12 17° NE 04:18:33 10° ENE
ATLAS 2AS CENTAUR R/B 3.3 04:18:04 58° SSE 04:19:12 63° ESE 04:27:03 10° NE
Cosmos 2344 3.5 04:21:19 77° N 04:21:19 77° N 04:29:09 10° NE
SL-16 R/B 3.8 04:23:05 24° SE 04:25:17 32° ESE 04:30:13 10° NE
CZ-2C R/B 4.2 04:21:16 10° NNE 04:23:30 26° NNE 04:23:30 26° NNE
Cosmos 1980 Rocket 3.3 04:34:10 36° NNE 04:34:10 36° NNE 04:37:27 10° NNE
Cosmos 1697 Rocket 4.3 04:39:39 23° N 04:39:39 23° N 04:41:54 10° NNE
Cosmos 1680 Rocket 4.3 04:40:03 49° ESE 04:40:26 50° ESE 04:45:34 10° NNE
Cosmos 2112 Rocket 4.4 04:57:52 41° SSE 04:59:33 62° ESE 05:04:50 10° NNE
Cosmos 962 Rocket 4.3 04:58:02 10° NNW 05:04:21 76° W 05:10:41 10° S
Orbus 7S? 4.5 05:07:25 41° SSE 05:07:25 41° SSE 05:11:33 10° SE
Lacrosse 5 2.2 05:09:55 54° S 05:10:38 61° SE 05:15:40 10° ENE
Cosmos 1624 Rocket 4.0 05:11:20 49° N 05:12:45 77° ENE 05:17:56 10° SSE
ATLAS 3B R/B 2.5 05:11:43 56° WNW 05:13:08 72° SW 05:20:00 10° SSE
COSMOS 2455 3.1 05:14:47 48° NW 05:14:47 48° NW 05:20:13 10° NNE
ADEOS Rocket 4.5 05:10:07 10° ESE 05:14:57 32° ENE 05:20:06 10° N
Cosmos 1484 Rocket 4.5 05:14:01 10° NNE 05:15:40 25° NNE 05:15:40 25° NNE
SKYMED 2 3.6 05:14:10 10° SSE 05:18:30 79° ENE 05:18:57 69° NNE
STARLINK-53 4.5 05:20:05 41° NNE 05:20:05 41° NNE 05:23:09 10° ENE
RESURS DK-1 3.5 05:17:24 25° S 05:19:24 43° ESE 05:23:21 10° NE
STARLINK 1044 4.0 05:21:00 57° ENE 05:21:00 57° ENE 05:24:11 10° ENE
NOSS 3-2 (C) 4.3 05:19:59 42° WSW 05:20:18 42° WSW 05:28:02 10° S
STARLINK-58 4.4 05:22:27 40° NNE 05:22:27 40° NNE 05:25:29 10° ENE
STARLINK 1031 3.9 05:23:31 58° ENE 05:23:31 58° ENE 05:26:40 10° ENE
Cosmos 2263 Rocket 2.7 05:24:16 42° SW 05:24:16 42° SW 05:28:34 10° S
STARLINK-62 4.4 05:24:07 41° NNE 05:24:07 41° NNE 05:27:12 10° ENE
Cosmos 2322 Rocket 2.3 05:20:48 17° SSW 05:25:13 76° ESE 05:30:57 10° NNE
BREEZE M DEB (TANK) 3.2 05:25:40 48° SE 05:25:40 48° SE 05:29:41 10° ENE
STARLINK 1024 3.7 05:26:58 64° ENE 05:26:58 64° ENE 05:30:15 10° ENE
STARLINK 4.4 05:28:22 38° NNE 05:28:22 38° NNE 05:31:10 10° ENE
Cosmos 2056 Rocket 3.4 05:26:40 36° NNW 05:29:01 82° WSW 05:34:26 10° SSE
CENTAUR R/B 3.4 05:27:53 39° W 05:30:08 47° WSW 05:38:20 10° S
SL-8 Rocket 3.8 05:25:40 10° NNW 05:31:49 70° W 05:37:55 10° S
Meteor 1-11 4.1 05:26:31 10° NNW 05:32:10 88° WSW 05:37:51 10° S
STARLINK 1032 3.4 05:33:55 76° NE 05:33:55 76° NE 05:37:30 10° ENE
Cosmos 1844 Rocket 3.3 05:29:15 15° NNW 05:33:52 54° ENE 05:39:24 10° SE
USA 215 3.3 05:27:22 10° ESE 05:33:53 74° NNE 05:37:22 30° NW
STARLINK 1007 4.5 05:35:17 29° NE 05:35:17 29° NE 05:36:55 10° ENE
STARLINK 1048 4.5 05:35:31 29° NE 05:35:31 29° NE 05:37:09 10° ENE
STARLINK 1049 4.5 05:35:43 29° NE 05:35:43 29° NE 05:37:23 10° ENE
STARLINK 1051 4.5 05:35:57 29° NE 05:35:57 29° NE 05:37:37 10° ENE
NOSS 3-4 (A) 3.4 05:33:11 42° WSW 05:35:16 68° NW 05:41:43 10° NE
NOSS 3-4 (C) 3.4 05:33:15 42° WSW 05:35:22 69° NW 05:41:49 10° NE
Cosmos 923 Rocket 4.2 05:35:47 48° WNW 05:35:51 48° WNW 05:41:02 10° NNE
STARLINK 1011 3.3 05:37:25 80° N 05:37:25 80° N 05:41:08 10° ENE
STARLINK 1036 3.2 05:40:55 77° NW 05:40:58 78° NNW 05:44:47 10° ENE
STARLINK-34 4.1 05:41:06 43° N 05:41:07 43° N 05:44:53 10° ENE
Cosmos 158 Rocket 3.7 05:40:30 22° SSW 05:43:41 76° WNW 05:48:42 10° NNE
Cosmos 2181 Rocket 3.9 05:40:06 10° SSW 05:46:17 63° WNW 05:52:38 10° N
STARLINK 1047 3.3 05:47:56 65° WNW 05:48:17 71° NNW 05:52:06 10° ENE
STARLINK 1037 3.3 05:50:17 61° WNW 05:50:44 69° NNW 05:54:33 10° ENE
STARLINK-42 4.0 05:53:19 37° NNW 05:53:38 38° N 05:57:06 10° ENE
FENGYUN 3A 3.6 05:48:20 10° NNE 05:53:46 84° WNW 05:59:11 10° SSW
STARLINK-29 4.0 05:54:14 35° SSW 05:54:14 35° SSW 05:57:16 10° SSE
Okean O Rocket 2.2 05:49:45 10° NNE 05:54:10 59° ESE 05:58:31 10° S
STARLINK 1059 3.4 05:53:50 55° WNW 05:54:26 67° NNW 05:58:15 10° ENE
Lacrosse 5 rocket 2.4 05:52:51 26° NNW 05:54:50 42° NNE 05:59:03 10° E
ALOS 2.1 05:50:22 10° N 05:55:03 74° WNW 05:59:42 10° SSW
Cosmos 2058 Rocket 3.0 05:51:06 10° SSW 05:55:25 56° WNW 05:59:44 10° N
STARLINK-24 4.2 05:55:39 37° NW 05:56:25 41° N 06:00:16 10° ENE
STARLINK 1040 3.6 05:57:11 38° NNE 05:57:11 38° NNE 05:59:27 10° ENE
STARLINK-52 3.9 05:56:51 37° SW 05:56:51 37° SW 06:00:04 10° SSE
Cosmos 2341 Rocket 4.5 05:51:23 10° NNW 05:56:55 34° W 06:02:24 10° SSW
STARLINK 1055 4.4 05:54:55 19° SSW 05:57:35 49° SE 06:01:36 10° ENE
Cosmos 2228 4.3 05:59:17 25° NNW 05:59:17 25° NNW 06:01:38 10° N
Cosmos 1726 Rocket 4.2 05:58:36 33° NW 05:58:36 33° NW 06:01:57 10° N
STARLINK 1057 3.4 05:57:24 50° WNW 05:58:09 64° NNW 06:01:58 10° ENE
STARLINK-61 4.3 05:57:45 34° NNW 05:58:39 39° N 06:02:23 10° ENE
STARLINK-81 4.2 05:57:58 36° NW 05:58:50 41° N 06:02:42 10° ENE
STARLINK-80 4.0 05:59:18 35° NW 06:00:26 48° NNE 06:04:08 10° E
STARLINK-54 4.2 05:59:41 35° NW 06:00:39 41° N 06:04:29 10° ENE
STARLINK 1052 3.5 06:00:59 45° WNW 06:01:54 62° NNW 06:05:42 10° ENE
STARLINK-77 4.2 06:01:08 34° NW 06:02:09 41° N 06:05:59 10° ENE
STARLINK 1022 4.3 05:59:41 18° SW 06:02:32 53° SE 06:06:35 10° ENE
MOS 1-B 4.2 05:57:05 10° NNE 06:02:53 77° WNW 06:08:41 10° SSW
STARLINK 1014 3.3 06:03:02 44° NNW 06:03:07 44° NNW 06:06:06 10° ENE
STARLINK-25 4.2 06:02:43 33° NW 06:03:48 41° N 06:07:39 10° ENE
CZ-2C R/B 3.9 06:00:15 10° N 06:02:54 21° NW 06:02:54 21° NW
CZ-3 R/B 4.3 05:54:02 16° WSW 06:04:33 24° SW 06:11:22 10° SSE
Cosmos 1867 4.3 06:00:00 14° NNW 06:04:35 51° NE 06:09:53 10° ESE
STARLINK 1068 3.5 06:04:32 41° WNW 06:05:36 59° NNW 06:09:24 10° ENE
STARLINK-71 4.3 06:04:32 32° NW 06:05:44 40° N 06:09:34 10° ENE
Cosmos 1821 Rocket 4.2 05:59:53 10° N 06:06:04 73° E 06:12:08 10° SSE
COSMO-SKYMED 1 3.2 06:02:45 10° SSW 06:06:42 34° W 06:07:35 31° WNW
STARLINK-79 4.2 06:05:51 31° NW 06:07:06 41° N 06:10:56 10° ENE
STARLINK 1042 4.2 06:04:25 17° SW 06:07:28 57° SE 06:11:32 10° ENE
Cosmos 1300 2.8 06:03:41 10° S 06:07:29 78° E 06:11:20 10° NNE
STARLINK-78 4.3 06:07:31 30° NW 06:08:50 40° N 06:12:40 10° ENE
SL-16 R/B 2.4 06:05:03 17° SW 06:09:11 48° NW 06:14:42 10° NNE
PSLV R/B 4.1 06:05:40 10° N 06:09:11 39° WNW 06:10:32 28° WSW
Cosmos 2360 Rocket 2.2 06:03:37 10° SSW 06:09:18 86° ESE 06:15:00 10° NNE
ATLAS 2AS CENTAUR R/B 3.4 06:05:34 22° W 06:10:36 47° NW 06:18:12 10° NE
STARLINK-57 4.3 06:09:13 29° NW 06:10:37 40° N 06:14:27 10° ENE
Cosmos 1452 Rocket 3.5 06:05:45 10° NNW 06:11:03 86° ENE 06:16:19 10° SSE
Cosmos 2219 Rocket 4.0 06:07:02 10° SSE 06:12:04 34° ESE 06:17:09 10° NE
STARLINK-49 4.3 06:10:41 29° NW 06:12:09 40° N 06:15:59 10° ENE
STARLINK 1056 4.0 06:09:15 16° SW 06:12:29 61° SSE 06:16:35 10° ENE
SJ-12 4.2 06:08:52 10° N 06:12:44 42° WNW 06:16:35 10° SW
Nadezhda 3 Rocket 4.2 06:06:38 10° S 06:12:45 74° E 06:18:58 10° NNE
STARLINK 1060 3.6 06:11:42 34° W 06:13:06 55° NNW 06:16:53 10° ENE
STARLINK-27 4.3 06:12:15 28° NW 06:13:47 40° N 06:17:37 10° ENE
H-2A R/B 3.9 06:10:17 10° NNE 06:14:04 46° E 06:17:46 10° S
STARLINK-74 4.3 06:13:51 27° NW 06:15:28 40° N 06:19:17 10° ENE
STARLINK-33 4.2 06:14:20 27° NW 06:15:31 35° N 06:18:50 10° ENE
STARLINK-64 4.2 06:14:54 27° NW 06:16:17 37° N 06:19:49 10° ENE
Cosmos 2322 4.4 06:10:54 10° S 06:16:27 59° ESE 06:22:01 10° NE
Cosmos 1980 Rocket 3.6 06:15:57 19° NW 06:16:41 19° NW 06:20:40 10° N
Meteor 2-12 Rocket 4.4 06:10:40 10° NNW 06:16:42 66° W 06:22:45 10° S
STARLINK 1030 3.6 06:15:18 31° W 06:16:51 54° NNW 06:20:38 10° ENE
STARLINK-39 4.3 06:15:27 26° NW 06:17:08 40° N 06:20:57 10° ENE
STARLINK-66 4.2 06:15:56 26° NW 06:17:12 35° N 06:20:31 10° ENE
STARLINK 1054 3.9 06:13:59 14° SW 06:17:24 65° SSE 06:21:31 10° ENE
CZ-4B R/B 4.4 06:14:19 10° NNW 06:16:32 20° NW 06:16:32 20° NW
Cosmos 2058 3.3 06:13:28 10° N 06:17:41 69° ENE 06:21:53 10° SSE
Cosmos 2218 Rocket 4.4 06:12:36 10° NNW 06:18:26 39° W 06:24:11 10° SSW
STARLINK 4.3 06:17:03 25° NW 06:18:49 40° N 06:22:38 10° ENE
STARLINK-55 4.2 06:17:33 25° NW 06:18:53 35° N 06:22:12 10° ENE
Gbstr 26 Del rocket 4.4 06:14:09 20° W 06:19:34 76° NNW 06:27:42 10° ENE
STARLINK 1020 3.7 06:18:56 28° W 06:20:38 52° NNW 06:24:24 10° ENE
STARLINK-28 4.2 06:19:15 25° NW 06:20:41 35° N 06:24:00 10° ENE
STARLINK-69 4.3 06:18:50 24° NW 06:20:41 40° N 06:24:31 10° ENE
CZ-4B R/B 3.2 06:15:37 10° NNE 06:21:10 87° WNW 06:26:35 10° SSW
STARLINK-21 4.3 06:20:15 24° NW 06:22:10 40° N 06:25:59 10° ENE
STARLINK 1062 3.8 06:18:45 13° SW 06:22:21 69° SSE 06:26:29 10° ENE
Cosmos 1680 Rocket 4.4 06:20:27 21° W 06:22:48 28° NW 06:27:24 10° N
STARLINK 1035 3.7 06:22:11 28° WNW 06:23:44 47° NNW 06:27:15 10° ENE
STARLINK-45 4.3 06:22:04 23° NW 06:24:05 39° N 06:27:54 10° ENE
STARLINK 1034 3.7 06:22:33 26° W 06:24:26 50° NNW 06:28:11 10° ENE
Cosmos 1844 3.6 06:18:56 10° NNW 06:24:32 82° WSW 06:30:06 10° SSE
Cosmos 1437 2.7 06:22:40 18° NNW 06:24:39 51° W 06:27:36 10° S
STARLINK-70 4.3 06:23:33 22° WNW 06:25:37 39° N 06:29:27 10° ENE
USA 116 4.4 06:23:04 10° SSW 06:27:01 34° W 06:30:02 13° NW
STARLINK-76 4.3 06:25:01 22° WNW 06:27:10 40° N 06:30:59 10° ENE
STARLINK 1053 3.8 06:23:36 12° SW 06:27:23 74° SSE 06:31:33 10° ENE
EXPRESS MD2 2.2 06:26:54 29° WNW 06:28:08 70° N 06:30:21 10° E
STARLINK 1027 3.8 06:26:40 25° WNW 06:28:25 44° NNW 06:31:54 10° ENE
STARLINK 4.3 06:26:37 21° WNW 06:28:50 39° N 06:32:39 10° ENE
Cosmos 1908 4.4 06:29:06 21° WNW 06:29:10 21° WNW 06:32:13 10° NNW
STARLINK-32 4.3 06:28:12 21° WNW 06:30:29 39° N 06:34:18 10° ENE
STARLINK 1033 3.8 06:29:52 22° W 06:32:04 48° NNW 06:35:49 10° ENE
STARLINK-40 4.3 06:29:48 20° WNW 06:32:09 40° N 06:35:59 10° ENE
STARLINK 1029 3.6 06:30:52 24° WNW 06:32:14 37° NNW 06:35:13 10° ENE
STARLINK 1061 3.7 06:28:23 11° SW 06:32:23 79° SSE 06:36:32 10° ENE
STARLINK-44 4.3 06:31:23 19° WNW 06:33:49 40° N 06:37:38 10° ENE
Helios 1A Rocket 2.8 06:30:00 10° N 06:34:09 73° WNW 06:38:16 10° SSW
STARLINK-43 3.3 06:33:00 20° WNW 06:35:26 79° SSW 06:39:09 10° ESE
Cosmos 1420 Rocket 4.3 06:30:23 10° NNW 06:35:27 46° WSW 06:40:30 10° S
STARLINK-37 4.3 06:33:04 19° WNW 06:35:36 40° N 06:39:25 10° ENE
Cosmos 2237 4.2 06:30:32 10° SW 06:36:13 66° WNW 06:41:55 10° NNE
BREEZE M DEB (TANK) 3.8 06:25:14 15° WNW 06:36:27 71° SSW 06:40:26 10° SE
Cosmos 1934 Rocket 4.2 06:30:22 10° N 06:36:31 77° E 06:42:44 10° SSE
NOAA 6 4.1 06:31:55 10° N 06:37:02 58° WNW 06:42:06 10° SSW
STARLINK-36 4.3 06:34:34 18° WNW 06:37:09 40° N 06:40:58 10° ENE
STARLINK 1067 3.6 06:33:11 10° WSW 06:37:20 84° SSE 06:41:30 10° ENE
SJ-7 4.5 06:34:21 10° N 06:38:28 58° WNW 06:42:36 10° SSW
STARLINK-68 4.3 06:36:21 17° WNW 06:39:02 40° N 06:42:51 10° ENE
BREEZE-M DEB (TANK) 3.8 06:35:44 17° W 06:39:11 79° N 06:54:44 10° E
STARLINK-48 3.8 06:37:14 17° WNW 06:40:05 56° NNE 06:43:56 10° E
STARLINK-63 4.3 06:37:50 17° WNW 06:40:34 40° N 06:44:24 10° ENE
STARLINK-35 4.3 06:39:19 16° WNW 06:42:07 40° N 06:45:56 10° ENE
Cosmos-2242 3.9 06:37:52 10° S 06:42:08 54° E 06:46:25 10° NNE
In-Cosmos 22 Rocket 4.0 06:36:53 10° NNW 06:42:13 74° W 06:47:30 10° S
STARLINK 1058 3.6 06:38:06 10° WSW 06:42:16 88° SSE 06:46:26 10° ENE
Cosmos 1892 2.7 06:38:45 10° N 06:42:35 84° ENE 06:46:23 10° S
CZ-4 R/B 4.3 06:40:24 10° NE 06:43:46 23° E 06:47:05 10° SE
STARLINK-51 4.3 06:40:54 16° WNW 06:43:47 40° N 06:47:37 10° ENE
Cosmos 2239 Rocket 4.5 06:37:37 10° NNW 06:43:52 70° W 06:50:00 10° S
STARLINK-30 4.3 06:42:31 15° WNW 06:45:28 40° N 06:49:18 10° ENE
COSMOS 2428 3.5 06:40:28 10° S 06:46:03 59° ESE 06:51:41 10° NE
STARLINK-72 4.3 06:44:06 15° WNW 06:47:08 40° N 06:50:57 10° ENE
STARLINK 1043 3.6 06:43:05 10° WSW 06:47:14 87° NNW 06:51:24 10° ENE
STARLINK-50 4.3 06:45:41 14° WNW 06:48:47 40° N 06:52:37 10° ENE
SMAP 3.1 06:45:10 10° NNE 06:49:51 90° WNW 06:54:31 10° SSW
STARLINK-59 4.3 06:47:22 14° WNW 06:50:33 41° N 06:54:24 10° ENE
STARLINK-56 4.3 06:48:52 13° WNW 06:52:08 41° N 06:55:58 10° ENE
STARLINK 1065 3.6 06:48:03 10° WSW 06:52:12 83° NNW 06:56:22 10° ENE
Cosmos 1331 Rocket 4.4 06:46:54 10° NNW 06:52:13 68° ENE 06:57:29 10° SSE
Starlink (trailer) 4.3 06:50:26 13° WNW 06:53:46 41° N 06:57:36 10° ENE
Lacrosse 5 2.4 06:49:09 11° W 06:53:49 43° NNW 06:58:41 10° NE
STARLINK-38 4.3 06:52:03 13° WNW 06:55:28 41° N 06:59:18 10° ENE
Iridium 96 4.0 06:53:14 10° SSW 06:55:28 35° W 06:57:39 10° NNW
Cosmos 1825 3.4 06:52:05 10° N 06:55:43 44° ENE 06:59:20 10° SSE
STARLINK-65 4.3 06:53:38 12° WNW 06:57:07 41° N 07:00:57 10° ENE
STARLINK 1063 3.6 06:53:01 10° WSW 06:57:10 79° NNW 07:01:20 10° ENE
Cosmos 1408 3.0 06:53:53 10° N 06:57:36 67° E 07:01:17 10° SSE
RESURS DK-1 3.5 06:54:11 10° WSW 06:57:37 24° NW 07:01:04 10° N
STARLINK-75 4.1 06:55:10 12° WNW 06:58:26 40° N 07:01:59 10° E
STARLINK-53 4.3 06:55:19 12° WNW 06:58:52 42° N 07:02:44 10° E
STARLINK 1044 4.1 06:55:41 12° W 06:59:05 41° N 07:02:46 10° ENE
Cosmos 1812 Rocket 4.0 06:55:58 10° SW 07:00:07 41° WNW 07:04:21 10° N
ADEOS Rocket 3.1 06:55:03 10° S 07:00:20 45° W 07:05:58 10° NNW
STARLINK-58 4.3 06:57:23 11° WNW 07:00:57 41° N 07:04:43 10° E
STARLINK 1031 4.1 06:57:58 11° W 07:01:23 40° N 07:05:00 10° ENE
Cosmos 2278 Rocket 2.7 06:55:52 10° NNW 07:01:31 62° ENE 07:07:06 10° SE
COSMOS 2455 4.4 06:57:58 10° WNW 07:01:50 17° NNW 07:05:41 10° NNE
STARLINK 1064 3.6 06:58:00 10° WSW 07:02:10 75° NNW 07:06:19 10° ENE
STARLINK-41 4.2 06:59:14 11° WNW 07:02:39 39° N 07:06:11 10° E
STARLINK-62 4.2 06:59:02 11° WNW 07:02:42 41° N 07:06:28 10° E
ATLAS 3B R/B 4.2 06:59:04 10° WNW 07:02:43 15° WSW 07:06:26 10° SW
Cosmos 1174 3.4 07:00:00 10° SW 07:03:47 68° NW 07:07:01 10° NNE
STARLINK 1024 4.1 07:01:25 10° WNW 07:05:00 40° N 07:08:37 10° ENE
IRS-1C Rocket 4.1 07:00:08 10° NNE 07:05:27 83° WNW 07:10:44 10° SSW
STARLINK 4.2 07:02:29 10° WNW 07:06:01 39° N 07:09:33 10° E
STARLINK 1028 3.9 07:03:39 10° WNW 07:06:12 29° N 07:08:51 10° ENE
STARLINK 1021 3.9 07:03:49 10° WNW 07:06:23 29° N 07:09:01 10° ENE
STARLINK 1019 3.9 07:04:03 10° WNW 07:06:36 29° N 07:09:12 10° ENE
STARLINK 1012 3.9 07:04:15 10° WNW 07:06:49 29° N 07:09:28 10° ENE
STARLINK 1010 3.9 07:04:28 10° WNW 07:07:03 29° N 07:09:41 10° ENE
STARLINK 1041 3.6 07:03:01 10° WSW 07:07:09 71° NNW 07:11:18 10° ENE
STARLINK 1026 3.9 07:04:40 10° WNW 07:07:16 29° N 07:09:54 10° ENE
STARLINK 1013 3.9 07:04:54 10° WNW 07:07:31 29° N 07:10:09 10° ENE
STARLINK 1009 3.9 07:05:07 10° WNW 07:07:43 29° N 07:10:22 10° ENE
STARLINK 1015 3.9 07:05:20 10° WNW 07:07:57 29° N 07:10:35 10° ENE
STARLINK 1016 3.9 07:05:34 10° WNW 07:08:11 29° N 07:10:49 10° ENE
STARLINK-26 3.5 07:04:45 10° WNW 07:08:11 56° NNE 07:11:38 10° E
NOAA 12 4.3 07:02:56 10° NNE 07:08:17 83° ESE 07:13:37 10° SSW
STARLINK 1008 3.9 07:05:47 10° WNW 07:08:24 29° N 07:11:02 10° ENE
STARLINK 1025 3.9 07:06:12 10° WNW 07:08:50 29° N 07:11:28 10° ENE
STARLINK 1017 3.9 07:06:26 10° WNW 07:09:04 29° N 07:11:42 10° ENE
STARLINK 1023 3.9 07:06:39 10° WNW 07:09:17 29° N 07:11:56 10° ENE
STARLINK 1007 3.9 07:06:54 10° WNW 07:09:31 29° N 07:12:09 10° ENE
STARLINK 1048 3.9 07:07:07 10° WNW 07:09:45 29° N 07:12:23 10° ENE
Cosmos 2322 Rocket 3.3 07:05:21 10° W 07:09:55 24° NW 07:14:30 10° N
STARLINK 1049 3.9 07:07:21 10° WNW 07:09:59 29° N 07:12:37 10° ENE
STARLINK 1051 3.9 07:07:35 10° WNW 07:10:13 29° N 07:12:51 10° ENE
Cosmos 1048 Rocket 4.0 07:06:22 10° SSW 07:11:37 68° WNW 07:16:49 10° NNE
STARLINK 1038 3.6 07:07:59 10° WSW 07:12:07 68° NNW 07:16:16 10° ENE
STARLINK 1032 4.1 07:08:41 10° WNW 07:12:17 39° N 07:15:54 10° ENE
Cosmos 2237 Rocket 3.9 07:09:08 10° S 07:14:21 40° ESE 07:19:35 10° NE
BREEZE-M DEB (TANK) 3.3 07:07:17 10° W 07:14:47 63° N 07:18:36 10° E
USA 215 3.9 07:11:04 10° SSE 07:17:11 42° SW 07:23:20 10° WNW
